Stations météo

réclame
Mon MeteoGroup
Lossiemouth, Grande-Bretagne (3068): Température de l'air & dewpoint: 06.07.2020 03:00:00 - 12.07.2020 03:00:00 (BST)Lossiemouth, Grande-Bretagne (3068): Vitesse du vent & gusts: 06.07.2020 03:00:00 - 12.07.2020 03:00:00 (BST)Lossiemouth, Grande-Bretagne (3068): Direction du vent: 06.07.2020 03:00:00 - 12.07.2020 03:00:00 (BST)Lossiemouth, Grande-Bretagne (3068): reduced air pressure: 06.07.2020 03:00:00 - 12.07.2020 03:00:00 (BST)Lossiemouth, Grande-Bretagne (3068): visibility: 06.07.2020 03:00:00 - 12.07.2020 03:00:00 (BST)Lossiemouth, Grande-Bretagne (3068): Quantités de précipitations: 06.07.2020 03:00:00 - 12.07.2020 03:00:00 (BST)
Date & Time tt [°C] td [°C] ff [km/h] ff [knt] fx [km/h] fx [knt] dd ppp [hPa] vv [km] rr [mm]
12.07.2020 03:00:00 - - - - - - - - - -
12.07.2020 02:00:00 11,5 7,8 28 15 - - WSW 1023,7 65 0,0
12.07.2020 01:00:00 12,1 8,0 18 10 - - W 1024,0 10 0,0
12.07.2020 00:00:00 12,3 8,2 24 13 - - WSW 1024,1 10 0,0
11.07.2020 23:00:00 12,9 8,4 24 13 - - WSW 1024,1 10 0,0
11.07.2020 22:00:00 13,6 8,4 21 11 - - WSW 1023,7 10 0,0
11.07.2020 21:00:00 14,1 8,7 22 12 - - W 1023,5 10 0,0
11.07.2020 20:00:00 14,1 9,1 24 13 - - W 1023,2 60 0,2
11.07.2020 19:00:00 15,1 8,8 24 13 - - W 1023,2 10 0,0
11.07.2020 18:00:00 15,6 9,3 22 12 - - WNW 1023,2 10 0,0
11.07.2020 17:00:00 15,3 9,1 22 12 - - WNW 1023,1 10 0,0
11.07.2020 16:00:00 16,7 8,5 21 11 - - WNW 1022,8 10 0,0
11.07.2020 15:00:00 15,2 8,4 16 9 - - WNW 1022,8 10 0,0
11.07.2020 14:00:00 14,3 8,9 22 12 - - NW 1022,8 10 0,0
11.07.2020 13:00:00 15,1 8,7 28 15 - - W 1022,6 10 0,0
11.07.2020 12:00:00 13,9 8,8 24 13 - - W 1022,2 10 0,0
11.07.2020 11:00:00 14,2 9,7 29 16 - - W 1021,8 10 0,0
11.07.2020 10:00:00 14,0 8,9 29 16 - - W 1021,4 10 0,0
11.07.2020 09:00:00 13,4 8,5 24 13 - - W 1021,3 45 0,0
11.07.2020 08:00:00 12,4 8,2 26 14 - - W 1020,8 10 0,0
11.07.2020 07:00:00 11,1 7,5 22 12 - - W 1020,5 10 0,0
11.07.2020 06:00:00 11,0 7,1 24 13 - - WSW 1020,3 60 0,0
11.07.2020 05:00:00 10,3 7,7 24 13 - - WSW 1020,0 10 0,0
11.07.2020 04:00:00 10,8 8,6 18 10 - - SW 1020,1 10 0,0
11.07.2020 03:00:00 11,7 8,9 26 14 - - W 1019,9 10 0,2
11.07.2020 02:00:00 11,1 9,4 15 8 - - SW 1019,7 10 0,0
11.07.2020 01:00:00 12,0 9,0 21 11 - - W 1019,7 10 0,0
11.07.2020 00:00:00 11,7 9,8 15 8 - - W 1019,5 10 0,2
10.07.2020 23:00:00 11,9 9,8 21 11 - - W 1019,2 10 0,0
10.07.2020 22:00:00 12,5 9,9 13 7 - - WNW 1018,6 10 1,4
10.07.2020 21:00:00 11,6 9,8 5 3 - - W 1018,2 10 2,0
10.07.2020 20:00:00 14,3 8,3 22 12 - - NW 1017,8 10 0,0
10.07.2020 19:00:00 14,2 7,7 21 11 - - WNW 1017,4 10 0,0
10.07.2020 18:00:00 14,2 7,9 26 14 - - WNW 1017,0 40 0,0
10.07.2020 17:00:00 16,1 8,6 24 13 - - WNW 1016,6 55 0,0
10.07.2020 16:00:00 15,8 8,3 21 11 - - W 1016,5 10 0,0
10.07.2020 15:00:00 14,4 7,6 22 12 - - NW 1016,4 50 0,0
10.07.2020 14:00:00 16,4 8,8 28 15 - - WNW 1016,1 10 0,0
10.07.2020 13:00:00 13,9 9,1 21 11 54 29 WNW 1016,1 20 0,0
10.07.2020 12:00:00 16,1 9,1 24 13 - - WSW 1015,5 10 0,0
10.07.2020 11:00:00 12,9 10,1 18 10 - - W 1015,7 10 0,4
10.07.2020 10:00:00 14,5 6,8 22 12 - - W 1015,4 10 0,0
10.07.2020 09:00:00 13,1 7,7 18 10 - - W 1015,3 65 0,0
10.07.2020 08:00:00 11,7 8,0 22 12 - - WNW 1015,2 10 0,0
10.07.2020 07:00:00 11,5 8,2 21 11 - - W 1014,9 10 0,0
10.07.2020 06:00:00 11,3 8,3 16 9 - - W 1014,8 50 0,0
10.07.2020 05:00:00 11,1 8,7 21 11 - - WNW 1014,7 10 0,0
10.07.2020 04:00:00 9,5 8,9 13 7 - - WSW 1014,6 10 0,0
10.07.2020 03:00:00 10,7 9,8 11 6 - - WSW 1014,7 50 0,0
10.07.2020 02:00:00 11,1 8,3 8 4 - - W 1014,7 10 0,0
10.07.2020 01:00:00 12,0 8,4 8 4 - - NNW 1015,1 10 0,0
10.07.2020 00:00:00 11,7 8,7 4 2 - - WNW 1015,0 50 0,0
09.07.2020 23:00:00 12,5 7,5 5 3 - - N 1014,9 10 0,0
09.07.2020 22:00:00 12,4 7,9 11 6 - - NNE 1014,6 10 0,0
09.07.2020 21:00:00 12,9 8,8 13 7 - - NNE 1014,4 10 0,0
09.07.2020 20:00:00 13,1 9,3 13 7 - - NNE 1014,4 10 0,0
09.07.2020 19:00:00 13,7 7,9 11 6 - - NE 1014,2 40 0,0
09.07.2020 18:00:00 14,1 9,2 15 8 - - E 1014,2 10 0,0
09.07.2020 17:00:00 14,2 8,5 16 9 - - NE 1014,5 10 0,0
09.07.2020 16:00:00 15,1 8,5 21 11 - - NE 1014,4 70 0,0
09.07.2020 15:00:00 15,5 8,2 16 9 - - NE 1014,5 10 0,0
09.07.2020 14:00:00 14,7 7,8 9 5 - - NNE 1014,6 10 0,0
09.07.2020 13:00:00 14,6 8,8 11 6 - - NNE 1014,9 10 0,0
09.07.2020 12:00:00 14,1 9,1 9 5 - - N 1014,7 10 0,0
09.07.2020 11:00:00 13,0 10,7 13 7 - - NNW 1014,8 10 0,0
09.07.2020 10:00:00 13,1 10,5 15 8 - - NNW 1014,7 40 0,0
09.07.2020 09:00:00 13,1 10,7 11 6 - - NW 1014,4 10 0,0
09.07.2020 08:00:00 12,8 11,1 11 6 - - NNW 1014,1 10 0,0
09.07.2020 07:00:00 11,6 11,2 8 4 - - W 1013,8 10 0,0
09.07.2020 06:00:00 11,1 10,8 9 5 - - WSW 1013,7 10 0,0
09.07.2020 05:00:00 11,0 10,6 11 6 - - WSW 1013,5 10 0,4
09.07.2020 04:00:00 11,0 10,0 5 3 - - W 1013,7 10 0,0
09.07.2020 03:00:00 11,0 9,5 4 2 - - W 1013,8 10 0,0
09.07.2020 02:00:00 11,4 9,2 4 2 - - E 1013,8 10 0,0
09.07.2020 01:00:00 11,6 8,9 5 3 - - ESE 1014,0 10 0,0
09.07.2020 00:00:00 12,2 8,7 9 5 - - E 1014,2 10 0,0
08.07.2020 23:00:00 12,4 8,6 8 4 - - E 1014,4 10 0,0
08.07.2020 22:00:00 12,9 8,5 11 6 - - ESE 1014,4 10 0,0
08.07.2020 21:00:00 13,5 8,8 16 9 - - SE 1014,4 10 0,0
08.07.2020 20:00:00 14,7 9,1 16 9 - - E 1014,3 10 0,0
08.07.2020 19:00:00 13,8 8,8 22 12 - - ENE 1014,6 10 0,0
08.07.2020 18:00:00 13,7 6,1 24 13 - - ENE 1014,9 10 0,0
08.07.2020 17:00:00 14,5 5,0 21 11 - - E 1015,6 55 0,0
08.07.2020 16:00:00 13,7 4,6 18 10 - - E 1015,9 10 0,0
08.07.2020 15:00:00 14,2 5,0 16 9 - - E 1016,1 10 0,0
08.07.2020 14:00:00 13,9 4,2 13 7 - - ENE 1016,3 10 0,0
08.07.2020 13:00:00 13,6 5,3 15 8 - - NE 1016,5 10 0,0
08.07.2020 12:00:00 12,7 5,5 13 7 - - NNE 1016,7 10 0,0
08.07.2020 11:00:00 12,2 5,7 11 6 - - NNW 1017,0 50 0,0
08.07.2020 10:00:00 12,4 6,4 8 4 - - NNW 1016,8 50 0,0
08.07.2020 09:00:00 12,2 6,9 5 3 - - N 1016,7 50 0,0
08.07.2020 08:00:00 11,1 5,6 8 4 - - N 1016,5 50 0,0
08.07.2020 07:00:00 10,9 6,4 5 3 - - NNW 1016,4 10 0,0
08.07.2020 06:00:00 9,3 6,6 8 4 - - NNW 1016,4 10 0,0
08.07.2020 05:00:00 7,1 4,5 4 2 - - WSW 1016,3 10 0,0
08.07.2020 04:00:00 10,2 5,3 2 1 - - N 1016,3 10 0,0
08.07.2020 03:00:00 9,9 5,3 8 4 - - N 1016,6 10 0,0
08.07.2020 02:00:00 10,4 5,8 11 6 - - NNE 1016,8 10 0,0
08.07.2020 01:00:00 10,4 5,5 11 6 - - NNE 1016,6 10 0,0
08.07.2020 00:00:00 11,0 5,7 13 7 - - NNE 1016,6 10 0,0
07.07.2020 23:00:00 11,4 5,5 5 3 - - E 1016,4 10 0,0
07.07.2020 22:00:00 11,5 5,8 5 3 - - NE 1016,2 10 0,0
07.07.2020 21:00:00 11,8 5,3 11 6 - - NE 1016,1 60 0,0
07.07.2020 20:00:00 12,0 5,8 13 7 - - ENE 1016,0 10 0,0
07.07.2020 19:00:00 12,3 6,8 13 7 - - E 1015,8 10 0,0
07.07.2020 18:00:00 13,6 5,9 18 10 - - NE 1015,6 50 0,0
07.07.2020 17:00:00 13,4 6,7 16 9 - - ENE 1015,7 10 0,0
07.07.2020 16:00:00 13,7 7,5 16 9 - - NE 1015,7 10 0,0
07.07.2020 15:00:00 13,4 7,7 9 5 - - NNE 1015,6 10 0,0
07.07.2020 14:00:00 13,5 7,9 9 5 - - NNW 1015,5 10 0,0
07.07.2020 13:00:00 13,2 7,4 9 5 - - NW 1015,3 10 0,0
07.07.2020 12:00:00 12,9 8,2 15 8 - - WNW 1015,1 10 0,0
07.07.2020 11:00:00 12,6 9,9 13 7 - - W 1015,0 10 0,0
07.07.2020 10:00:00 10,7 8,7 13 7 - - WNW 1015,2 10 0,6
07.07.2020 09:00:00 9,7 9,2 9 5 - - N 1015,1 4,0 1,8
07.07.2020 08:00:00 9,8 8,9 13 7 - - N 1015,0 10 0,2
07.07.2020 07:00:00 11,3 8,6 16 9 - - W 1014,8 10 0,0
07.07.2020 06:00:00 10,6 8,7 21 11 - - W 1014,8 10 0,2
07.07.2020 05:00:00 10,6 8,2 21 11 - - WSW 1014,9 10 0,0
07.07.2020 04:00:00 10,3 8,1 22 12 - - WSW 1015,1 10 0,0
07.07.2020 03:00:00 11,0 8,0 21 11 - - W 1015,3 30 0,0
07.07.2020 02:00:00 11,3 7,9 22 12 - - W 1015,3 10 0,0
07.07.2020 01:00:00 11,4 7,6 28 15 - - W 1015,3 10 0,0
07.07.2020 00:00:00 11,3 8,5 24 13 - - WSW 1015,4 10 0,0
06.07.2020 23:00:00 11,2 8,2 18 10 - - WSW 1015,5 10 0,0
06.07.2020 22:00:00 12,1 8,1 24 13 48 26 WSW 1015,5 10 0,0
06.07.2020 21:00:00 12,9 6,9 34 18 52 28 W 1015,4 40 0,0
06.07.2020 20:00:00 13,4 5,9 37 20 54 29 W 1015,3 10 0,0
06.07.2020 19:00:00 13,6 6,5 37 20 50 27 W 1015,3 10 0,0
06.07.2020 18:00:00 13,9 7,1 37 20 57 31 WSW 1015,5 10 0,0
06.07.2020 17:00:00 14,6 6,9 34 18 46 25 W 1015,3 10 0,0
06.07.2020 16:00:00 14,6 6,5 28 15 - - W 1015,5 10 0,0
06.07.2020 15:00:00 16,0 7,0 35 19 - - WNW 1015,3 10 0,0
06.07.2020 14:00:00 13,9 7,9 28 15 46 25 WNW 1015,4 10 0,0
06.07.2020 13:00:00 15,3 8,2 37 20 46 25 WNW 1015,0 10 0,0
06.07.2020 12:00:00 14,1 5,9 29 16 - - NW 1014,5 10 0,0
06.07.2020 11:00:00 12,5 7,7 29 16 - - WNW 1014,4 10 0,0
06.07.2020 10:00:00 12,6 6,7 28 15 52 28 NW 1013,5 10 0,0
06.07.2020 09:00:00 11,7 6,1 35 19 52 28 NW 1012,4 50 0,0
06.07.2020 08:00:00 11,4 7,4 31 17 - - NW 1011,1 10 0,0
06.07.2020 07:00:00 11,1 9,0 35 19 50 27 NW 1009,8 10 0,8
06.07.2020 06:00:00 11,3 8,9 37 20 52 28 NW 1008,2 10 0,0
06.07.2020 05:00:00 11,2 9,1 31 17 - - NW 1006,8 10 0,0
06.07.2020 04:00:00 11,4 9,1 28 15 46 25 WNW 1005,8 10 0,0
06.07.2020 03:00:00 11,3 8,5 34 18 - - NW 1004,7 10 0,0

tt = Température de l'air
td = dewpoint
ff = Vitesse du vent
fx = gusts
dd = Direction du vent
ppp = reduced air pressure
vv = visibility
rr = Quantités de précipitations

stations d'obs. à proximité